DW0884 Weather Reports


Display with metric or nautical units.
time (UTC)temp
F
wind
direction
speed
MPH
gust
MPH
rain 1hr
in
rain 24hr
in
rain mn
in
humidity
%
barometer
mb
20260504130106 47 0 0.0 0.0 0.00 0.00 0.00 91 1009.6
20260504081558 49 0 0.0 0.0 0.00 0.00 0.00 88 1009.4
20260504044554 54 290 0.0 2.0 0.00 0.00 0.00 82 1009.4
20260504043058 55 242 0.0 2.0 0.00 0.00 0.00 81 1009.4
20260504041602 55 0 0.0 0.0 0.00 0.00 0.00 80 1009.4
20260504040054 56 0 0.0 0.0 0.00 0.00 0.00 79 1009.4
20260504034606 57 0 0.0 2.0 0.00 0.00 0.00 77 1009.3
20260504033055 58 0 0.0 2.0 0.00 0.00 0.00 75 1009.4
20260504031555 59 235 0.0 2.0 0.00 0.00 0.00 74 1009.4
20260504030054 60 0 0.0 2.0 0.00 0.00 0.00 72 1009.5
20260504024555 61 0 0.0 2.0 0.00 0.00 0.00 70 1009.6
20260504023057 62 236 1.0 5.0 0.00 0.00 0.00 67 1009.7
20260504021556 63 169 1.0 3.0 0.00 0.00 0.00 66 1009.6
20260504020105 65 0 0.0 2.0 0.00 0.00 0.00 64 1009.7
20260504014558 67 183 0.0 2.0 0.00 0.00 0.00 61 1010.0
20260504013113 68 191 0.0 2.0 0.00 0.00 0.00 60 1010.1
20260504011553 70 181 1.0 2.0 0.00 0.00 0.00 56 1010.2
20260504010052 72 250 1.0 4.0 0.00 0.00 0.00 53 1010.3
20260504004551 71 239 1.0 5.0 0.00 0.00 0.00 56 1010.7
20260504003051 70 255 1.0 4.0 0.00 0.00 0.00 56 1010.8
20260504001554 69 214 1.0 3.0 0.00 0.00 0.00 59 1011.0
20260504000055 72 274 2.0 4.0 0.00 0.00 0.00 55 1011.1
20260503234553 74 231 2.0 6.0 0.00 0.00 0.00 51 1011.2
20260503233050 72 243 3.0 6.0 0.00 0.00 0.00 55 1011.3
20260503231552 75 267 3.0 7.0 0.00 0.00 0.00 49 1011.4
20260503230052 77 5 2.0 5.0 0.00 0.00 0.00 47 1011.5
20260503224600 76 323 2.0 6.0 0.00 0.00 0.00 45 1011.6
20260503223051 77 277 2.0 7.0 0.00 0.00 0.00 49 1012.1
20260503221600 77 212 1.0 5.0 0.00 0.00 0.00 50 1012.3
20260503220055 74 321 4.0 7.0 0.00 0.00 0.00 49 1012.5
20260503214550 72 248 3.0 8.0 0.00 0.00 0.00 51 1012.5
20260503213052 73 236 3.0 7.0 0.00 0.00 0.00 52 1012.6
20260503211552 73 234 2.0 6.0 0.00 0.00 0.00 53 1012.7
20260503210052 72 208 3.0 5.0 0.00 0.00 0.00 59 1012.9
20260503204613 73 257 2.0 7.0 0.00 0.00 0.00 53 1013.1
20260503203057 73 276 1.0 5.0 0.00 0.00 0.00 51 1013.3
20260503201552 72 300 1.0 7.0 0.00 0.00 0.00 54 1013.5
20260503200054 71 346 2.0 9.0 0.00 0.00 0.00 51 1013.9
20260503194550 71 269 2.0 8.0 0.00 0.00 0.00 56 1014.1
20260503193056 70 233 2.0 8.0 0.00 0.00 0.00 55 1014.2
20260503191611 71 254 2.0 7.0 0.00 0.00 0.00 57 1014.1
20260503190052 71 300 2.0 6.0 0.00 0.00 0.00 54 1014.4
20260503184551 72 331 2.0 6.0 0.00 0.00 0.00 57 1014.5
20260503183053 70 290 2.0 5.0 0.00 0.00 0.00 54 1014.5
20260503181554 71 251 1.0 5.0 0.00 0.00 0.00 61 1014.5
20260503180058 70 0 3.0 5.0 0.00 0.00 0.00 58 1014.5
20260503174554 71 231 2.0 6.0 0.00 0.00 0.00 60 1014.7
20260503173053 69 309 1.0 4.0 0.00 0.00 0.00 58 1014.7
20260503171551 70 0 0.0 2.0 0.00 0.00 0.00 57 1014.8
20260503170105 68 229 1.0 3.0 0.00 0.00 0.00 61 1014.9